Time,TemperatureF,DewpointF,PressureIn,WindDirection,WindDirectionDegrees,WindSpeedMPH,WindSpeedGustMPH,Humidity,HourlyPrecipIn,Conditions,Clouds,dailyrainin,SolarRadiationWatts/m^2,SoftwareType,DateUTC
2013-09-21 00:00:00,64.6,61.0,29.89,SE,140,1.0,2.0,88,0.00,,,0.04,0.0,meteohub,2013-09-21 04:00:00,
2013-09-21 00:01:00,64.6,61.0,29.89,SE,140,0.0,2.0,88,0.00,,,0.04,0.0,meteohub,2013-09-21 04:01:00,
2013-09-21 00:02:00,64.6,61.0,29.89,SE,140,0.0,2.0,88,0.00,,,0.04,0.0,meteohub,2013-09-21 04:02:00,
2013-09-21 00:03:00,64.6,61.0,29.89,SSE,148,1.0,2.0,88,0.00,,,0.04,0.0,meteohub,2013-09-21 04:03:00,
2013-09-21 00:08:00,64.6,61.3,29.89,ESE,114,0.0,4.0,89,0.00,,,0.00,0.0,meteohub,2013-09-21 04:08:00,
2013-09-21 00:13:00,64.6,61.0,29.89,ESE,103,0.0,4.0,88,0.00,,,0.00,0.0,meteohub,2013-09-21 04:13:00,
2013-09-21 00:18:00,64.6,61.0,29.89,SE,139,0.0,4.0,88,0.00,,,0.00,0.0,meteohub,2013-09-21 04:18:00,
2013-09-21 00:23:00,64.6,61.0,29.89,SE,141,0.0,4.0,88,0.00,,,0.00,0.0,meteohub,2013-09-21 04:23:00,
2013-09-21 00:28:00,64.6,61.3,29.88,WSW,244,2.0,4.0,89,0.00,,,0.00,0.0,meteohub,2013-09-21 04:28:00,
2013-09-21 00:33:00,64.6,61.3,29.88,ESE,113,0.0,4.0,89,0.00,,,0.00,0.0,meteohub,2013-09-21 04:33:00,
2013-09-21 00:38:00,64.6,61.3,29.88,SE,144,2.0,4.0,89,0.00,,,0.00,0.0,meteohub,2013-09-21 04:38:00,
2013-09-21 00:44:00,64.8,61.5,29.88,ESE,103,0.0,4.0,89,0.00,,,0.00,0.0,meteohub,2013-09-21 04:44:00,
2013-09-21 00:49:00,64.8,61.5,29.88,SE,129,0.0,3.0,89,0.00,,,0.00,0.0,meteohub,2013-09-21 04:49:00,
2013-09-21 00:54:00,64.8,61.5,29.88,SE,142,1.0,3.0,89,0.00,,,0.00,0.0,meteohub,2013-09-21 04:54:00,
2013-09-21 00:59:00,64.9,61.7,29.88,SW,224,0.0,4.0,89,0.00,,,0.00,0.0,meteohub,2013-09-21 04:59:00,
2013-09-21 01:04:00,64.9,61.7,29.88,WSW,253,0.0,4.0,89,0.00,,,0.00,0.0,meteohub,2013-09-21 05:04:00,
2013-09-21 01:09:00,64.9,61.7,29.88,SSE,148,0.0,4.0,89,0.00,,,0.00,0.0,meteohub,2013-09-21 05:09:00,
2013-09-21 01:14:00,64.9,61.7,29.88,ENE,78,0.0,3.0,89,0.00,,,0.00,0.0,meteohub,2013-09-21 05:14:00,
2013-09-21 01:19:00,64.9,61.7,29.87,SE,141,3.0,3.0,89,0.00,,,0.00,0.0,meteohub,2013-09-21 05:19:00,
2013-09-21 01:24:00,64.9,61.7,29.87,South,169,0.0,3.0,89,0.00,,,0.00,0.0,meteohub,2013-09-21 05:24:00,
2013-09-21 01:29:00,64.9,61.7,29.87,ESE,117,0.0,4.0,89,0.00,,,0.00,0.0,meteohub,2013-09-21 05:29:00,
2013-09-21 01:34:00,64.9,61.9,29.87,East,90,0.0,4.0,90,0.00,,,0.00,0.0,meteohub,2013-09-21 05:34:00,
2013-09-21 01:39:00,64.9,61.9,29.87,East,92,0.0,5.0,90,0.00,,,0.00,0.0,meteohub,2013-09-21 05:39:00,
2013-09-21 01:44:00,64.9,61.9,29.87,ENE,76,0.0,6.0,90,0.00,,,0.00,0.0,meteohub,2013-09-21 05:44:00,
2013-09-21 01:49:00,64.9,61.9,29.86,SSE,149,0.0,6.0,90,0.00,,,0.00,0.0,meteohub,2013-09-21 05:49:00,
2013-09-21 01:55:00,64.8,61.7,29.86,ESE,111,2.0,6.0,90,0.00,,,0.00,0.0,meteohub,2013-09-21 05:55:00,
2013-09-21 02:00:00,64.8,61.7,29.86,SE,131,0.0,5.0,90,0.00,,,0.00,0.0,meteohub,2013-09-21 06:00:00,
2013-09-21 02:05:00,64.8,61.7,29.86,SSW,198,0.0,5.0,90,0.00,,,0.00,0.0,meteohub,2013-09-21 06:05:00,
2013-09-21 02:10:00,64.8,61.7,29.86,ESE,123,1.0,4.0,90,0.00,,,0.00,0.0,meteohub,2013-09-21 06:10:00,
2013-09-21 02:15:00,64.6,61.5,29.86,ESE,123,0.0,7.0,90,0.00,,,0.00,0.0,meteohub,2013-09-21 06:15:00,
2013-09-21 02:20:00,64.6,61.5,29.86,ESE,123,0.0,7.0,90,0.00,,,0.00,0.0,meteohub,2013-09-21 06:20:00,
2013-09-21 02:25:00,64.6,61.5,29.86,ESE,123,0.0,1.0,90,0.00,,,0.00,0.0,meteohub,2013-09-21 06:25:00,
2013-09-21 02:30:00,64.4,61.7,29.85,SE,142,2.0,3.0,91,0.00,,,0.00,0.0,meteohub,2013-09-21 06:30:00,
2013-09-21 02:36:00,64.2,61.5,29.85,SE,140,2.0,4.0,91,0.00,,,0.00,0.0,meteohub,2013-09-21 06:36:00,
2013-09-21 02:41:00,64.2,61.5,29.85,East,92,2.0,4.0,91,0.00,,,0.00,0.0,meteohub,2013-09-21 06:41:00,
2013-09-21 02:46:00,64.2,61.5,29.85,SSE,150,0.0,4.0,91,0.00,,,0.00,0.0,meteohub,2013-09-21 06:46:00,
2013-09-21 02:51:00,64.2,61.5,29.85,SE,144,0.0,3.0,91,0.00,,,0.00,0.0,meteohub,2013-09-21 06:51:00,
2013-09-21 02:56:00,64.0,61.3,29.84,SSE,157,0.0,3.0,91,0.00,,,0.00,0.0,meteohub,2013-09-21 06:56:00,
2013-09-21 03:02:00,64.0,61.7,29.84,SSE,149,0.0,3.0,92,0.00,,,0.00,0.0,meteohub,2013-09-21 07:02:00,
2013-09-21 03:07:00,64.0,61.7,29.84,ESE,111,0.0,3.0,92,0.00,,,0.00,0.0,meteohub,2013-09-21 07:07:00,
2013-09-21 03:12:00,64.0,61.7,29.83,WNW,302,0.0,4.0,92,0.00,,,0.00,0.0,meteohub,2013-09-21 07:12:00,
2013-09-21 03:17:00,64.0,61.7,29.83,SE,133,1.0,4.0,92,0.00,,,0.00,0.0,meteohub,2013-09-21 07:17:00,
2013-09-21 03:22:00,64.0,61.7,29.83,SE,133,0.0,4.0,92,0.00,,,0.00,0.0,meteohub,2013-09-21 07:22:00,
2013-09-21 03:27:00,64.0,61.7,29.83,SE,133,0.0,2.0,92,0.00,,,0.00,0.0,meteohub,2013-09-21 07:27:00,
2013-09-21 03:32:00,64.0,61.7,29.82,SE,133,0.0,1.0,92,0.00,,,0.00,0.0,meteohub,2013-09-21 07:32:00,
2013-09-21 03:37:00,64.0,61.7,29.82,SE,133,0.0,1.0,92,0.00,,,0.00,0.0,meteohub,2013-09-21 07:37:00,
2013-09-21 03:42:00,63.9,61.5,29.82,SE,133,0.0,1.0,92,0.00,,,0.00,0.0,meteohub,2013-09-21 07:42:00,
2013-09-21 03:47:00,63.9,61.5,29.82,SE,132,0.0,1.0,92,0.00,,,0.00,0.0,meteohub,2013-09-21 07:47:00,
2013-09-21 03:52:00,63.9,61.5,29.81,SSE,157,1.0,3.0,92,0.00,,,0.00,0.0,meteohub,2013-09-21 07:52:00,
2013-09-21 03:57:00,63.7,61.3,29.81,SSE,158,0.0,3.0,92,0.00,,,0.00,0.0,meteohub,2013-09-21 07:57:00,
2013-09-21 04:02:00,63.7,61.3,29.81,SSE,158,0.0,3.0,92,0.00,,,0.00,0.0,meteohub,2013-09-21 08:02:00,
2013-09-21 04:07:00,63.7,61.3,29.81,ESE,115,2.0,3.0,92,0.00,,,0.00,0.0,meteohub,2013-09-21 08:07:00,
2013-09-21 04:12:00,63.7,61.3,29.81,ESE,115,1.0,3.0,92,0.00,,,0.00,0.0,meteohub,2013-09-21 08:12:00,
2013-09-21 04:17:00,63.7,61.3,29.80,SE,131,1.0,3.0,92,0.00,,,0.00,0.0,meteohub,2013-09-21 08:17:00,
2013-09-21 04:22:00,63.7,61.7,29.80,SW,218,0.0,4.0,93,0.00,,,0.00,0.0,meteohub,2013-09-21 08:22:00,
2013-09-21 04:27:00,63.7,61.3,29.80,SW,218,0.0,4.0,92,0.00,,,0.00,0.0,meteohub,2013-09-21 08:27:00,
2013-09-21 04:32:00,63.7,61.3,29.79,SW,218,1.0,4.0,92,0.00,,,0.00,0.0,meteohub,2013-09-21 08:32:00,
2013-09-21 04:37:00,63.7,61.3,29.79,SW,218,0.0,3.0,92,0.00,,,0.00,0.0,meteohub,2013-09-21 08:37:00,
2013-09-21 04:42:00,63.7,61.3,29.79,SSW,207,1.0,3.0,92,0.00,,,0.00,0.0,meteohub,2013-09-21 08:42:00,
2013-09-21 04:47:00,63.7,61.3,29.79,South,179,0.0,3.0,92,0.00,,,0.00,0.0,meteohub,2013-09-21 08:47:00,
2013-09-21 04:52:00,63.5,61.2,29.79,South,180,0.0,2.0,92,0.00,,,0.00,0.0,meteohub,2013-09-21 08:52:00,
2013-09-21 04:57:00,63.5,61.2,29.79,South,180,0.0,2.0,92,0.00,,,0.00,0.0,meteohub,2013-09-21 08:57:00,
2013-09-21 05:02:00,63.5,61.2,29.78,SSE,163,0.0,3.0,92,0.00,,,0.00,0.0,meteohub,2013-09-21 09:02:00,
2013-09-21 05:07:00,63.3,61.0,29.78,NE,51,4.0,4.0,92,0.00,,,0.00,0.0,meteohub,2013-09-21 09:07:00,
2013-09-21 05:12:00,63.5,61.2,29.78,SE,146,1.0,4.0,92,0.00,,,0.00,0.0,meteohub,2013-09-21 09:12:00,
2013-09-21 05:17:00,63.5,61.2,29.78,East,97,0.0,4.0,92,0.00,,,0.00,0.0,meteohub,2013-09-21 09:17:00,
2013-09-21 05:22:00,63.5,61.2,29.78,West,267,0.0,4.0,92,0.00,,,0.00,0.0,meteohub,2013-09-21 09:22:00,
2013-09-21 05:27:00,63.5,61.2,29.78,SSW,200,0.0,4.0,92,0.00,,,0.00,0.0,meteohub,2013-09-21 09:27:00,
2013-09-21 05:32:00,63.5,61.2,29.77,East,79,0.0,3.0,92,0.00,,,0.00,0.0,meteohub,2013-09-21 09:32:00,
2013-09-21 05:37:00,63.5,61.5,29.77,SSE,149,0.0,3.0,93,0.00,,,0.00,0.0,meteohub,2013-09-21 09:37:00,
2013-09-21 05:42:00,63.5,61.2,29.78,SSW,209,0.0,4.0,92,0.00,,,0.00,0.0,meteohub,2013-09-21 09:42:00,
2013-09-21 05:47:00,63.5,61.2,29.78,SSW,203,0.0,4.0,92,0.00,,,0.00,0.0,meteohub,2013-09-21 09:47:00,
2013-09-21 05:52:00,63.5,61.5,29.78,ENE,76,0.0,4.0,93,0.00,,,0.00,0.0,meteohub,2013-09-21 09:52:00,
2013-09-21 05:57:00,63.7,61.7,29.78,SE,142,0.0,5.0,93,0.00,,,0.00,0.0,meteohub,2013-09-21 09:57:00,
2013-09-21 06:02:00,63.7,61.7,29.77,South,175,0.0,5.0,93,0.00,,,0.00,0.0,meteohub,2013-09-21 10:02:00,
2013-09-21 06:07:00,63.7,61.7,29.77,SE,142,1.0,5.0,93,0.00,,,0.00,0.0,meteohub,2013-09-21 10:07:00,
2013-09-21 06:12:00,63.7,61.7,29.78,East,85,1.0,3.0,93,0.00,,,0.00,0.0,meteohub,2013-09-21 10:12:00,
2013-09-21 06:17:00,63.7,61.7,29.77,ESE,112,0.0,4.0,93,0.00,,,0.00,0.0,meteohub,2013-09-21 10:17:00,
2013-09-21 06:22:00,63.7,61.7,29.77,ESE,106,0.0,4.0,93,0.00,,,0.00,0.0,meteohub,2013-09-21 10:22:00,
2013-09-21 06:27:00,63.7,61.7,29.77,WNW,292,0.0,3.0,93,0.00,,,0.00,0.0,meteohub,2013-09-21 10:27:00,
2013-09-21 06:32:00,63.7,61.7,29.77,SW,229,1.0,5.0,93,0.00,,,0.00,0.0,meteohub,2013-09-21 10:32:00,
2013-09-21 06:37:00,63.5,61.5,29.77,SE,132,0.0,7.0,93,0.00,,,0.00,0.0,meteohub,2013-09-21 10:37:00,
2013-09-21 06:42:00,63.5,61.5,29.78,SSW,207,0.0,7.0,93,0.00,,,0.00,0.0,meteohub,2013-09-21 10:42:00,
2013-09-21 06:47:00,63.3,61.5,29.78,WSW,246,0.0,7.0,94,0.00,,,0.00,0.0,meteohub,2013-09-21 10:47:00,
2013-09-21 06:52:00,63.3,61.5,29.77,South,188,1.0,4.0,94,0.00,,,0.00,0.0,meteohub,2013-09-21 10:52:00,
2013-09-21 06:57:00,63.1,61.3,29.78,SW,228,0.0,4.0,94,0.00,,,0.00,0.0,meteohub,2013-09-21 10:57:00,
2013-09-21 07:02:00,63.1,61.3,29.78,SW,228,0.0,4.0,94,0.00,,,0.00,0.0,meteohub,2013-09-21 11:02:00,
2013-09-21 07:07:00,63.0,61.2,29.78,SW,229,0.0,4.0,94,0.00,,,0.00,0.0,meteohub,2013-09-21 11:07:00,
2013-09-21 07:12:00,63.0,61.5,29.78,SSW,203,2.0,3.0,95,0.00,,,0.00,0.0,meteohub,2013-09-21 11:12:00,
2013-09-21 07:17:00,63.0,61.5,29.78,NNE,18,0.0,3.0,95,0.00,,,0.00,0.0,meteohub,2013-09-21 11:17:00,
2013-09-21 07:22:00,62.8,61.3,29.78,SSW,198,0.0,6.0,95,0.00,,,0.00,0.0,meteohub,2013-09-21 11:22:00,
2013-09-21 07:27:00,62.8,61.3,29.78,North,10,0.0,6.0,95,0.00,,,0.00,0.0,meteohub,2013-09-21 11:27:00,
2013-09-21 07:32:00,62.8,61.3,29.78,West,281,0.0,6.0,95,0.00,,,0.00,0.0,meteohub,2013-09-21 11:32:00,
2013-09-21 07:37:00,62.6,61.5,29.78,SSE,153,0.0,5.0,96,0.00,,,0.00,0.0,meteohub,2013-09-21 11:37:00,
2013-09-21 07:42:00,62.6,61.5,29.78,SSE,160,0.0,6.0,96,0.00,,,0.00,0.0,meteohub,2013-09-21 11:42:00,
2013-09-21 07:47:00,62.4,61.3,29.78,ESE,121,3.0,6.0,96,0.00,,,0.00,5.0,meteohub,2013-09-21 11:47:00,
2013-09-21 07:52:00,62.4,61.3,29.78,SSE,156,0.0,6.0,96,0.00,,,0.00,0.0,meteohub,2013-09-21 11:52:00,
2013-09-21 07:57:00,62.4,61.3,29.77,West,263,0.0,4.0,96,0.00,,,0.00,5.0,meteohub,2013-09-21 11:57:00,
2013-09-21 08:02:00,62.4,61.5,29.77,SSW,213,0.0,4.0,97,0.00,,,0.00,0.0,meteohub,2013-09-21 12:02:00,
2013-09-21 08:07:00,62.4,61.3,29.77,SSW,213,0.0,4.0,96,0.00,,,0.00,0.0,meteohub,2013-09-21 12:07:00,
2013-09-21 08:12:00,62.4,61.3,29.77,WSW,254,2.0,4.0,96,0.00,,,0.00,7.0,meteohub,2013-09-21 12:12:00,
2013-09-21 08:17:00,62.2,61.2,29.77,East,81,0.0,5.0,96,0.00,,,0.00,5.0,meteohub,2013-09-21 12:17:00,
2013-09-21 08:22:00,62.2,61.3,29.77,North,9,0.0,8.0,97,0.00,,,0.00,5.0,meteohub,2013-09-21 12:22:00,
2013-09-21 08:27:00,62.2,61.3,29.77,SSW,205,0.0,8.0,97,0.00,,,0.00,7.0,meteohub,2013-09-21 12:27:00,
2013-09-21 08:32:00,62.2,61.3,29.77,ESE,103,1.0,6.0,97,0.01,,,0.01,12.0,meteohub,2013-09-21 12:32:00,
2013-09-21 08:37:00,62.2,61.3,29.77,SSE,168,1.0,5.0,97,0.01,,,0.01,16.0,meteohub,2013-09-21 12:37:00,
2013-09-21 08:42:00,62.2,61.3,29.77,SSE,157,1.0,5.0,97,0.01,,,0.01,21.0,meteohub,2013-09-21 12:42:00,
2013-09-21 08:47:00,62.2,61.3,29.77,SSW,198,1.0,8.0,97,0.01,,,0.01,23.0,meteohub,2013-09-21 12:47:00,
2013-09-21 08:52:00,62.2,61.3,29.77,East,87,0.0,8.0,97,0.01,,,0.01,21.0,meteohub,2013-09-21 12:52:00,
2013-09-21 08:57:00,62.2,61.3,29.77,WSW,251,1.0,5.0,97,0.01,,,0.01,32.0,meteohub,2013-09-21 12:57:00,
2013-09-21 09:02:00,62.2,61.3,29.77,West,266,2.0,5.0,97,0.01,,,0.01,53.0,meteohub,2013-09-21 13:02:00,
2013-09-21 09:07:00,62.4,61.5,29.77,SE,124,1.0,5.0,97,0.01,,,0.01,56.0,meteohub,2013-09-21 13:07:00,
2013-09-21 09:12:00,62.4,61.5,29.77,NW,323,1.0,4.0,97,0.01,,,0.01,60.0,meteohub,2013-09-21 13:12:00,
2013-09-21 09:17:00,62.6,61.7,29.77,SSW,194,3.0,4.0,97,0.01,,,0.01,69.0,meteohub,2013-09-21 13:17:00,
2013-09-21 09:22:00,62.8,61.9,29.77,NNE,32,0.0,7.0,97,0.01,,,0.01,46.0,meteohub,2013-09-21 13:22:00,
2013-09-21 09:27:00,62.8,61.9,29.77,NNE,13,0.0,7.0,97,0.01,,,0.01,56.0,meteohub,2013-09-21 13:27:00,
2013-09-21 09:32:00,62.8,61.9,29.76,SSW,212,2.0,7.0,97,0.00,,,0.01,62.0,meteohub,2013-09-21 13:32:00,
2013-09-21 09:37:00,63.0,62.1,29.76,SSW,206,3.0,5.0,97,0.00,,,0.01,32.0,meteohub,2013-09-21 13:37:00,
2013-09-21 09:42:00,63.0,62.1,29.76,South,173,3.0,4.0,97,0.00,,,0.01,32.0,meteohub,2013-09-21 13:42:00,
2013-09-21 09:47:00,63.0,62.1,29.76,SSW,196,0.0,4.0,97,0.00,,,0.01,18.0,meteohub,2013-09-21 13:47:00,
2013-09-21 09:52:00,62.8,61.9,29.76,SSE,167,0.0,8.0,97,0.00,,,0.01,33.0,meteohub,2013-09-21 13:52:00,
2013-09-21 09:57:00,63.0,62.1,29.75,SSE,167,3.0,8.0,97,0.01,,,0.02,40.0,meteohub,2013-09-21 13:57:00,
2013-09-21 10:02:00,63.0,62.1,29.75,West,271,0.0,8.0,97,0.01,,,0.02,21.0,meteohub,2013-09-21 14:02:00,
2013-09-21 10:07:00,63.0,62.1,29.76,East,92,1.0,5.0,97,0.01,,,0.02,21.0,meteohub,2013-09-21 14:07:00,
2013-09-21 10:12:00,63.0,62.1,29.75,SSE,148,2.0,5.0,97,0.01,,,0.02,32.0,meteohub,2013-09-21 14:12:00,
2013-09-21 10:17:00,63.0,62.1,29.75,East,89,0.0,5.0,97,0.01,,,0.02,32.0,meteohub,2013-09-21 14:17:00,
2013-09-21 10:22:00,63.0,62.1,29.75,SSW,198,0.0,5.0,97,0.02,,,0.03,30.0,meteohub,2013-09-21 14:22:00,
2013-09-21 10:27:00,63.0,62.1,29.75,SW,227,3.0,7.0,97,0.02,,,0.03,33.0,meteohub,2013-09-21 14:27:00,
2013-09-21 10:32:00,63.0,62.1,29.75,SSW,196,0.0,7.0,97,0.02,,,0.03,46.0,meteohub,2013-09-21 14:32:00,
2013-09-21 10:37:00,63.0,62.1,29.75,ENE,69,0.0,7.0,97,0.02,,,0.03,42.0,meteohub,2013-09-21 14:37:00,
2013-09-21 10:42:00,63.0,62.1,29.75,WSW,248,1.0,7.0,97,0.02,,,0.03,53.0,meteohub,2013-09-21 14:42:00,
2013-09-21 10:47:00,63.0,62.1,29.75,SE,143,6.0,7.0,97,0.02,,,0.03,65.0,meteohub,2013-09-21 14:47:00,
2013-09-21 10:52:00,63.0,62.1,29.75,West,271,1.0,8.0,97,0.01,,,0.03,30.0,meteohub,2013-09-21 14:52:00,
2013-09-21 10:57:00,63.0,62.1,29.74,WNW,290,1.0,9.0,97,0.01,,,0.03,33.0,meteohub,2013-09-21 14:57:00,
2013-09-21 11:02:00,63.0,62.1,29.74,SSE,153,0.0,9.0,97,0.02,,,0.04,28.0,meteohub,2013-09-21 15:02:00,
2013-09-21 11:07:00,63.0,62.1,29.75,ESE,122,2.0,9.0,97,0.02,,,0.04,21.0,meteohub,2013-09-21 15:07:00,
2013-09-21 11:12:00,63.0,62.1,29.74,WSW,252,1.0,7.0,97,0.02,,,0.04,26.0,meteohub,2013-09-21 15:12:00,
2013-09-21 11:17:00,63.0,62.1,29.75,SSE,149,3.0,5.0,97,0.02,,,0.05,49.0,meteohub,2013-09-21 15:17:00,
2013-09-21 11:22:00,63.0,62.1,29.74,SSW,211,0.0,5.0,97,0.03,,,0.06,19.0,meteohub,2013-09-21 15:22:00,
2013-09-21 11:27:00,63.0,62.4,29.74,ESE,105,3.0,5.0,98,0.03,,,0.06,25.0,meteohub,2013-09-21 15:27:00,
2013-09-21 11:32:00,63.0,62.4,29.74,SE,138,1.0,9.0,98,0.04,,,0.07,14.0,meteohub,2013-09-21 15:32:00,
2013-09-21 11:37:00,62.8,62.2,29.74,WNW,287,1.0,9.0,98,0.04,,,0.07,19.0,meteohub,2013-09-21 15:37:00,
2013-09-21 11:42:00,62.8,62.2,29.74,ENE,68,1.0,10.0,98,0.05,,,0.08,14.0,meteohub,2013-09-21 15:42:00,
2013-09-21 11:47:00,62.8,62.2,29.74,SSE,156,1.0,10.0,98,0.05,,,0.08,21.0,meteohub,2013-09-21 15:47:00,
2013-09-21 11:52:00,62.8,62.2,29.74,West,272,1.0,10.0,98,0.05,,,0.08,19.0,meteohub,2013-09-21 15:52:00,
2013-09-21 11:57:00,62.8,62.2,29.74,SW,229,2.0,12.0,98,0.05,,,0.09,28.0,meteohub,2013-09-21 15:57:00,
2013-09-21 12:02:00,62.8,62.2,29.74,SW,229,2.0,12.0,98,0.05,,,0.09,16.0,meteohub,2013-09-21 16:02:00,
2013-09-21 12:07:00,63.0,62.4,29.73,SW,232,0.0,12.0,98,0.05,,,0.09,19.0,meteohub,2013-09-21 16:07:00,
2013-09-21 12:12:00,62.8,62.2,29.74,SSW,209,5.0,7.0,98,0.04,,,0.09,21.0,meteohub,2013-09-21 16:12:00,
2013-09-21 12:17:00,63.0,62.4,29.73,SE,145,3.0,7.0,98,0.05,,,0.10,32.0,meteohub,2013-09-21 16:17:00,
2013-09-21 12:22:00,63.0,62.4,29.73,SW,225,1.0,7.0,98,0.04,,,0.10,63.0,meteohub,2013-09-21 16:22:00,
2013-09-21 12:27:00,63.0,62.4,29.73,WNW,294,1.0,7.0,98,0.04,,,0.10,46.0,meteohub,2013-09-21 16:27:00,
2013-09-21 12:32:00,63.0,62.4,29.73,SE,134,1.0,7.0,98,0.04,,,0.11,72.0,meteohub,2013-09-21 16:32:00,
2013-09-21 12:37:00,63.0,62.4,29.73,SE,128,1.0,7.0,98,0.03,,,0.11,30.0,meteohub,2013-09-21 16:37:00,
2013-09-21 12:42:00,63.0,62.4,29.73,WSW,239,1.0,7.0,98,0.05,,,0.13,35.0,meteohub,2013-09-21 16:42:00,
2013-09-21 12:47:00,63.0,62.4,29.73,ESE,105,0.0,4.0,98,0.06,,,0.14,60.0,meteohub,2013-09-21 16:47:00,
2013-09-21 12:52:00,63.1,62.6,29.72,SE,146,2.0,4.0,98,0.05,,,0.14,74.0,meteohub,2013-09-21 16:52:00,
2013-09-21 12:57:00,63.0,62.4,29.72,SW,216,1.0,7.0,98,0.05,,,0.14,30.0,meteohub,2013-09-21 16:57:00,
2013-09-21 13:02:00,63.0,62.4,29.72,SSW,198,2.0,7.0,98,0.06,,,0.15,67.0,meteohub,2013-09-21 17:02:00,
2013-09-21 13:07:00,63.1,62.6,29.72,East,80,0.0,7.0,98,0.07,,,0.16,72.0,meteohub,2013-09-21 17:07:00,
2013-09-21 13:12:00,63.0,62.4,29.72,ESE,116,1.0,8.0,98,0.07,,,0.16,118.0,meteohub,2013-09-21 17:12:00,
2013-09-21 13:17:00,63.0,62.4,29.72,SW,226,2.0,8.0,98,0.06,,,0.16,60.0,meteohub,2013-09-21 17:17:00,
2013-09-21 13:22:00,63.0,62.4,29.71,South,185,3.0,8.0,98,0.07,,,0.17,25.0,meteohub,2013-09-21 17:22:00,
2013-09-21 13:27:00,63.0,62.4,29.71,WSW,249,5.0,7.0,98,0.07,,,0.17,25.0,meteohub,2013-09-21 17:27:00,
2013-09-21 13:32:00,62.8,62.2,29.70,SW,234,0.0,7.0,98,0.07,,,0.18,35.0,meteohub,2013-09-21 17:32:00,
2013-09-21 13:37:00,63.0,62.4,29.70,SSE,158,0.0,6.0,98,0.07,,,0.19,21.0,meteohub,2013-09-21 17:37:00,
2013-09-21 13:42:00,63.0,62.4,29.70,WSW,238,0.0,5.0,98,0.08,,,0.21,25.0,meteohub,2013-09-21 17:42:00,
2013-09-21 13:47:00,63.0,62.4,29.70,SSE,158,0.0,4.0,98,0.07,,,0.21,26.0,meteohub,2013-09-21 17:47:00,
2013-09-21 13:52:00,63.0,62.4,29.70,SW,219,0.0,4.0,98,0.09,,,0.23,16.0,meteohub,2013-09-21 17:52:00,
2013-09-21 13:57:00,62.8,62.2,29.70,SSW,196,0.0,6.0,98,0.08,,,0.23,21.0,meteohub,2013-09-21 17:57:00,
2013-09-21 14:02:00,62.8,62.2,29.69,SSW,195,0.0,7.0,98,0.11,,,0.26,19.0,meteohub,2013-09-21 18:02:00,
2013-09-21 14:07:00,62.8,62.2,29.68,SE,140,0.0,7.0,98,0.13,,,0.29,62.0,meteohub,2013-09-21 18:07:00,
2013-09-21 14:12:00,62.8,62.2,29.68,WSW,237,0.0,5.0,98,0.15,,,0.31,37.0,meteohub,2013-09-21 18:12:00,
2013-09-21 14:17:00,62.8,62.2,29.68,SE,136,0.0,5.0,98,0.17,,,0.34,33.0,meteohub,2013-09-21 18:17:00,
2013-09-21 14:22:00,62.8,62.2,29.68,ESE,107,2.0,5.0,98,0.18,,,0.35,62.0,meteohub,2013-09-21 18:22:00,
2013-09-21 14:27:00,63.0,62.4,29.69,NE,55,0.0,5.0,98,0.18,,,0.36,54.0,meteohub,2013-09-21 18:27:00,
2013-09-21 14:32:00,63.0,62.4,29.68,East,95,3.0,5.0,98,0.19,,,0.37,32.0,meteohub,2013-09-21 18:32:00,
2013-09-21 14:37:00,63.0,62.4,29.68,West,271,1.0,3.0,98,0.20,,,0.40,35.0,meteohub,2013-09-21 18:37:00,
2013-09-21 14:42:00,63.0,62.4,29.69,WSW,246,2.0,3.0,98,0.20,,,0.41,23.0,meteohub,2013-09-21 18:42:00,
2013-09-21 14:47:00,63.0,62.4,29.68,East,98,0.0,3.0,98,0.22,,,0.44,16.0,meteohub,2013-09-21 18:47:00,
2013-09-21 14:52:00,63.0,62.4,29.68,SE,131,2.0,4.0,98,0.22,,,0.45,30.0,meteohub,2013-09-21 18:52:00,
2013-09-21 14:57:00,63.0,62.4,29.68,WNW,284,2.0,4.0,98,0.24,,,0.48,16.0,meteohub,2013-09-21 18:57:00,
2013-09-21 15:02:00,63.0,62.4,29.68,ESE,110,0.0,4.0,98,0.24,,,0.51,23.0,meteohub,2013-09-21 19:02:00,
2013-09-21 15:07:00,63.0,62.4,29.68,NNW,341,0.0,4.0,98,0.24,,,0.54,11.0,meteohub,2013-09-21 19:07:00,
2013-09-21 15:12:00,63.0,62.4,29.68,South,172,0.0,4.0,98,0.28,,,0.60,19.0,meteohub,2013-09-21 19:12:00,
2013-09-21 15:17:00,62.8,62.2,29.68,South,178,1.0,5.0,98,0.32,,,0.66,42.0,meteohub,2013-09-21 19:17:00,
2013-09-21 15:22:00,62.6,62.1,29.68,West,274,0.0,5.0,98,0.33,,,0.68,28.0,meteohub,2013-09-21 19:22:00,
2013-09-21 15:27:00,62.6,62.1,29.68,South,176,4.0,5.0,98,0.35,,,0.71,18.0,meteohub,2013-09-21 19:27:00,
2013-09-21 15:32:00,62.4,61.9,29.68,SSW,207,0.0,4.0,98,0.36,,,0.74,16.0,meteohub,2013-09-21 19:32:00,
2013-09-21 15:37:00,62.4,61.9,29.67,SW,218,3.0,8.0,98,0.35,,,0.75,32.0,meteohub,2013-09-21 19:37:00,
2013-09-21 15:42:00,62.4,61.9,29.67,SE,130,2.0,8.0,98,0.39,,,0.81,33.0,meteohub,2013-09-21 19:42:00,
2013-09-21 15:47:00,62.4,61.9,29.66,SSE,158,0.0,8.0,98,0.40,,,0.83,37.0,meteohub,2013-09-21 19:47:00,
2013-09-21 15:52:00,62.2,61.7,29.67,ENE,78,1.0,7.0,98,0.40,,,0.87,23.0,meteohub,2013-09-21 19:52:00,
2013-09-21 15:58:00,62.2,61.7,29.66,NW,304,1.0,8.0,98,0.45,,,0.93,16.0,meteohub,2013-09-21 19:58:00,
2013-09-21 16:03:00,62.2,61.7,29.66,SE,145,0.0,8.0,98,0.45,,,0.95,18.0,meteohub,2013-09-21 20:03:00,
2013-09-21 16:08:00,62.2,61.7,29.66,NW,319,1.0,8.0,98,0.43,,,1.00,14.0,meteohub,2013-09-21 20:08:00,
2013-09-21 16:13:00,62.2,61.7,29.66,West,264,2.0,3.0,98,0.45,,,1.07,23.0,meteohub,2013-09-21 20:13:00,
2013-09-21 16:18:00,62.2,61.7,29.66,SW,224,2.0,3.0,98,0.44,,,1.10,19.0,meteohub,2013-09-21 20:18:00,
2013-09-21 16:23:00,62.2,61.7,29.66,SSW,204,4.0,4.0,98,0.45,,,1.14,16.0,meteohub,2013-09-21 20:23:00,
2013-09-21 16:28:00,62.2,61.7,29.66,SE,132,0.0,5.0,98,0.46,,,1.18,23.0,meteohub,2013-09-21 20:28:00,
2013-09-21 16:33:00,62.2,61.7,29.66,SE,132,0.0,5.0,98,0.48,,,1.22,19.0,meteohub,2013-09-21 20:33:00,
2013-09-21 16:38:00,62.2,61.7,29.66,SE,132,0.0,5.0,98,0.50,,,1.28,19.0,meteohub,2013-09-21 20:38:00,
2013-09-21 16:43:00,62.2,61.7,29.66,SE,132,0.0,2.0,98,0.54,,,1.35,16.0,meteohub,2013-09-21 20:43:00,
2013-09-21 16:48:00,62.2,61.7,29.65,SE,132,0.0,1.0,98,0.54,,,1.38,18.0,meteohub,2013-09-21 20:48:00,
2013-09-21 16:54:00,62.1,61.5,29.65,SE,130,1.0,1.0,98,0.54,,,1.43,30.0,meteohub,2013-09-21 20:54:00,
2013-09-21 16:59:00,61.9,61.3,29.64,SSE,163,0.0,1.0,98,0.51,,,1.45,25.0,meteohub,2013-09-21 20:59:00,
2013-09-21 17:04:00,61.9,61.3,29.64,SSE,163,0.0,3.0,98,0.50,,,1.47,21.0,meteohub,2013-09-21 21:04:00,
2013-09-21 17:09:00,61.5,61.0,29.64,SSE,163,0.0,3.0,98,0.46,,,1.49,19.0,meteohub,2013-09-21 21:09:00,
2013-09-21 17:14:00,61.5,61.0,29.63,SSE,163,0.0,3.0,98,0.41,,,1.49,18.0,meteohub,2013-09-21 21:14:00,
2013-09-21 17:19:00,61.3,60.8,29.63,SSE,163,1.0,2.0,98,0.39,,,1.51,16.0,meteohub,2013-09-21 21:19:00,
2013-09-21 17:24:00,61.3,60.4,29.63,SSE,163,0.0,1.0,97,0.36,,,1.51,14.0,meteohub,2013-09-21 21:24:00,
2013-09-21 17:29:00,61.3,60.4,29.62,SSE,163,0.0,1.0,97,0.33,,,1.52,18.0,meteohub,2013-09-21 21:29:00,
2013-09-21 17:34:00,61.2,60.3,29.63,SSE,163,0.0,1.0,97,0.29,,,1.53,25.0,meteohub,2013-09-21 21:34:00,
2013-09-21 17:40:00,61.2,60.3,29.63,SSE,163,1.0,1.0,97,0.25,,,1.55,32.0,meteohub,2013-09-21 21:40:00,
2013-09-21 17:45:00,61.2,60.3,29.63,SSE,163,0.0,1.0,97,0.20,,,1.56,23.0,meteohub,2013-09-21 21:45:00,
2013-09-21 17:50:00,61.2,60.3,29.63,SSE,163,0.0,1.0,97,0.16,,,1.56,12.0,meteohub,2013-09-21 21:50:00,
2013-09-21 17:55:00,61.2,60.3,29.63,SSE,163,1.0,2.0,97,0.11,,,1.57,16.0,meteohub,2013-09-21 21:55:00,
2013-09-21 18:00:00,61.2,60.3,29.64,SSE,163,0.0,2.0,97,0.09,,,1.57,7.0,meteohub,2013-09-21 22:00:00,
2013-09-21 18:05:00,61.2,60.3,29.64,SE,126,0.0,2.0,97,0.08,,,1.57,7.0,meteohub,2013-09-21 22:05:00,
2013-09-21 18:10:00,61.0,60.1,29.65,ENE,60,0.0,2.0,97,0.07,,,1.57,5.0,meteohub,2013-09-21 22:10:00,
2013-09-21 18:15:00,60.8,59.9,29.65,NNE,13,0.0,2.0,97,0.06,,,1.57,0.0,meteohub,2013-09-21 22:15:00,
2013-09-21 18:20:00,60.6,59.7,29.64,NNE,13,1.0,2.0,97,0.05,,,1.57,7.0,meteohub,2013-09-21 22:20:00,
2013-09-21 18:25:00,60.6,59.7,29.64,NNE,13,0.0,2.0,97,0.04,,,1.57,14.0,meteohub,2013-09-21 22:25:00,
2013-09-21 18:31:00,60.6,59.7,29.64,South,172,0.0,2.0,97,0.03,,,1.57,18.0,meteohub,2013-09-21 22:31:00,
2013-09-21 18:36:00,60.6,59.7,29.64,South,172,0.0,2.0,97,0.02,,,1.58,19.0,meteohub,2013-09-21 22:36:00,
2013-09-21 18:41:00,60.6,59.7,29.64,East,100,0.0,2.0,97,0.02,,,1.58,23.0,meteohub,2013-09-21 22:41:00,
2013-09-21 18:46:00,60.6,59.7,29.64,East,100,0.0,2.0,97,0.02,,,1.58,21.0,meteohub,2013-09-21 22:46:00,
2013-09-21 18:51:00,60.6,59.7,29.63,NNE,18,0.0,5.0,97,0.01,,,1.58,18.0,meteohub,2013-09-21 22:51:00,
2013-09-21 18:56:00,60.6,59.7,29.62,SSE,168,0.0,5.0,97,0.01,,,1.58,18.0,meteohub,2013-09-21 22:56:00,
2013-09-21 19:01:00,60.4,59.5,29.63,NNE,33,0.0,5.0,97,0.01,,,1.58,16.0,meteohub,2013-09-21 23:01:00,
2013-09-21 19:06:00,60.4,59.5,29.62,NNE,33,0.0,2.0,97,0.01,,,1.58,12.0,meteohub,2013-09-21 23:06:00,
2013-09-21 19:12:00,60.3,59.4,29.62,NNE,32,0.0,3.0,97,0.01,,,1.58,9.0,meteohub,2013-09-21 23:12:00,
2013-09-21 19:17:00,60.3,59.4,29.62,SSE,160,0.0,4.0,97,0.01,,,1.58,5.0,meteohub,2013-09-21 23:17:00,
2013-09-21 19:22:00,60.1,59.2,29.62,North,355,1.0,4.0,97,0.01,,,1.58,0.0,meteohub,2013-09-21 23:22:00,
2013-09-21 19:27:00,60.1,59.2,29.62,East,90,2.0,4.0,97,0.01,,,1.58,5.0,meteohub,2013-09-21 23:27:00,
2013-09-21 19:32:00,60.1,59.2,29.62,ENE,61,0.0,4.0,97,0.01,,,1.58,5.0,meteohub,2013-09-21 23:32:00,
2013-09-21 19:37:00,59.9,59.0,29.62,SSE,163,0.0,4.0,97,0.00,,,1.58,0.0,meteohub,2013-09-21 23:37:00,
2013-09-21 19:42:00,59.9,59.0,29.63,SSE,163,0.0,3.0,97,0.00,,,1.58,0.0,meteohub,2013-09-21 23:42:00,
2013-09-21 19:47:00,59.9,59.0,29.63,SSE,163,0.0,3.0,97,0.00,,,1.58,0.0,meteohub,2013-09-21 23:47:00,
2013-09-21 19:52:00,59.7,58.8,29.63,WNW,297,0.0,1.0,97,0.00,,,1.58,0.0,meteohub,2013-09-21 23:52:00,
2013-09-21 19:57:00,59.7,58.8,29.62,WSW,257,0.0,5.0,97,0.00,,,1.58,0.0,meteohub,2013-09-21 23:57:00,
2013-09-21 20:02:00,59.7,58.8,29.62,NE,52,0.0,5.0,97,0.00,,,1.58,0.0,meteohub,2013-09-22 00:02:00,
2013-09-21 20:07:00,59.7,58.8,29.63,East,96,0.0,5.0,97,0.00,,,1.58,0.0,meteohub,2013-09-22 00:07:00,
2013-09-21 20:12:00,59.7,58.8,29.63,ESE,105,2.0,2.0,97,0.00,,,1.58,0.0,meteohub,2013-09-22 00:12:00,
2013-09-21 20:17:00,59.7,58.8,29.63,ESE,123,2.0,3.0,97,0.00,,,1.58,0.0,meteohub,2013-09-22 00:17:00,
2013-09-21 20:22:00,59.7,58.8,29.63,ESE,121,1.0,3.0,97,0.00,,,1.58,0.0,meteohub,2013-09-22 00:22:00,
2013-09-21 20:27:00,59.5,58.6,29.64,NNE,28,2.0,3.0,97,0.00,,,1.58,0.0,meteohub,2013-09-22 00:27:00,
2013-09-21 20:32:00,59.5,58.6,29.64,ESE,116,2.0,2.0,97,0.00,,,1.58,0.0,meteohub,2013-09-22 00:32:00,
2013-09-21 20:37:00,59.5,58.6,29.64,ESE,110,1.0,4.0,97,0.00,,,1.58,0.0,meteohub,2013-09-22 00:37:00,
2013-09-21 20:42:00,59.5,58.6,29.64,SW,220,2.0,5.0,97,0.00,,,1.58,0.0,meteohub,2013-09-22 00:42:00,
2013-09-21 20:47:00,59.4,58.5,29.64,ENE,77,2.0,5.0,97,0.00,,,1.58,0.0,meteohub,2013-09-22 00:47:00,
2013-09-21 20:52:00,59.4,58.5,29.64,East,81,2.0,5.0,97,0.00,,,1.58,0.0,meteohub,2013-09-22 00:52:00,
2013-09-21 20:57:00,59.2,58.3,29.64,East,82,1.0,5.0,97,0.00,,,1.58,0.0,meteohub,2013-09-22 00:57:00,
2013-09-21 21:02:00,59.2,58.3,29.65,NE,42,0.0,5.0,97,0.00,,,1.58,0.0,meteohub,2013-09-22 01:02:00,
2013-09-21 21:07:00,59.2,58.3,29.65,NNE,26,1.0,5.0,97,0.00,,,1.58,0.0,meteohub,2013-09-22 01:07:00,
2013-09-21 21:12:00,59.0,58.1,29.65,ESE,111,3.0,5.0,97,0.00,,,1.58,0.0,meteohub,2013-09-22 01:12:00,
2013-09-21 21:17:00,58.8,57.9,29.65,ENE,71,2.0,5.0,97,0.00,,,1.58,0.0,meteohub,2013-09-22 01:17:00,
2013-09-21 21:22:00,58.8,57.9,29.65,ESE,111,2.0,5.0,97,0.00,,,1.58,0.0,meteohub,2013-09-22 01:22:00,
2013-09-21 21:27:00,58.6,57.7,29.65,NE,42,3.0,4.0,97,0.00,,,1.58,0.0,meteohub,2013-09-22 01:27:00,
2013-09-21 21:32:00,58.6,57.7,29.65,ESE,113,2.0,4.0,97,0.00,,,1.58,0.0,meteohub,2013-09-22 01:32:00,
2013-09-21 21:37:00,58.5,57.6,29.65,SE,125,0.0,3.0,97,0.00,,,1.58,0.0,meteohub,2013-09-22 01:37:00,
2013-09-21 21:42:00,58.5,57.6,29.66,ESE,104,1.0,4.0,97,0.00,,,1.58,0.0,meteohub,2013-09-22 01:42:00,
2013-09-21 21:47:00,58.5,57.6,29.66,East,88,0.0,4.0,97,0.00,,,1.58,0.0,meteohub,2013-09-22 01:47:00,
2013-09-21 21:52:00,58.3,57.4,29.66,East,90,1.0,4.0,97,0.00,,,1.58,0.0,meteohub,2013-09-22 01:52:00,
2013-09-21 21:57:00,58.3,57.4,29.67,East,90,0.0,3.0,97,0.00,,,1.58,0.0,meteohub,2013-09-22 01:57:00,
2013-09-21 22:02:00,58.3,57.4,29.67,East,90,0.0,2.0,97,0.00,,,1.58,0.0,meteohub,2013-09-22 02:02:00,
2013-09-21 22:07:00,58.1,57.2,29.67,East,90,0.0,2.0,97,0.00,,,1.58,0.0,meteohub,2013-09-22 02:07:00,
2013-09-21 22:12:00,58.1,57.2,29.67,East,90,0.0,2.0,97,0.00,,,1.58,0.0,meteohub,2013-09-22 02:12:00,
2013-09-21 22:17:00,57.9,56.8,29.67,East,90,0.0,2.0,96,0.00,,,1.58,0.0,meteohub,2013-09-22 02:17:00,
2013-09-21 22:22:00,57.9,56.8,29.67,East,90,1.0,2.0,96,0.00,,,1.58,0.0,meteohub,2013-09-22 02:22:00,
2013-09-21 22:27:00,57.9,56.8,29.67,ENE,61,0.0,2.0,96,0.00,,,1.58,0.0,meteohub,2013-09-22 02:27:00,
2013-09-21 22:32:00,57.9,56.8,29.67,ENE,62,2.0,2.0,96,0.00,,,1.58,0.0,meteohub,2013-09-22 02:32:00,
2013-09-21 22:37:00,57.7,56.7,29.68,ENE,62,0.0,2.0,96,0.00,,,1.58,0.0,meteohub,2013-09-22 02:37:00,
2013-09-21 22:42:00,57.7,56.7,29.68,ENE,62,0.0,2.0,96,0.00,,,1.58,0.0,meteohub,2013-09-22 02:42:00,
2013-09-21 22:47:00,57.7,56.8,29.68,ENE,62,0.0,2.0,97,0.00,,,1.58,0.0,meteohub,2013-09-22 02:47:00,
2013-09-21 22:52:00,57.7,56.8,29.68,ENE,62,1.0,1.0,97,0.00,,,1.58,0.0,meteohub,2013-09-22 02:52:00,
2013-09-21 22:57:00,57.7,56.8,29.68,ENE,62,0.0,2.0,97,0.00,,,1.58,0.0,meteohub,2013-09-22 02:57:00,
2013-09-21 23:02:00,57.7,56.8,29.68,ENE,62,1.0,2.0,97,0.00,,,1.58,0.0,meteohub,2013-09-22 03:02:00,
2013-09-21 23:07:00,57.6,56.7,29.68,ENE,62,0.0,2.0,97,0.00,,,1.58,0.0,meteohub,2013-09-22 03:07:00,
2013-09-21 23:12:00,57.6,56.7,29.69,ENE,62,1.0,2.0,97,0.00,,,1.58,0.0,meteohub,2013-09-22 03:12:00,
2013-09-21 23:17:00,57.6,56.7,29.69,ENE,62,0.0,2.0,97,0.00,,,1.58,0.0,meteohub,2013-09-22 03:17:00,
2013-09-21 23:22:00,57.4,56.5,29.69,ENE,62,1.0,2.0,97,0.00,,,1.58,0.0,meteohub,2013-09-22 03:22:00,
2013-09-21 23:27:00,57.4,56.5,29.69,ENE,62,1.0,2.0,97,0.00,,,1.58,0.0,meteohub,2013-09-22 03:27:00,
2013-09-21 23:32:00,57.4,56.5,29.69,ENE,62,1.0,2.0,97,0.00,,,1.58,0.0,meteohub,2013-09-22 03:32:00,
2013-09-21 23:37:00,57.2,56.3,29.69,ENE,62,0.0,2.0,97,0.00,,,1.58,0.0,meteohub,2013-09-22 03:37:00,
2013-09-21 23:42:00,57.0,56.1,29.69,ENE,62,0.0,2.0,97,0.00,,,1.58,0.0,meteohub,2013-09-22 03:42:00,
2013-09-21 23:47:00,57.0,56.1,29.69,ENE,62,1.0,1.0,97,0.00,,,1.58,0.0,meteohub,2013-09-22 03:47:00,
2013-09-21 23:52:00,57.0,56.1,29.70,ENE,62,0.0,1.0,97,0.00,,,1.58,0.0,meteohub,2013-09-22 03:52:00,
2013-09-21 23:57:00,57.0,56.1,29.70,ENE,62,0.0,1.0,97,0.00,,,1.58,0.0,meteohub,2013-09-22 03:57:00,